This is the latest recevied weather packets stored in our database for station/object W0VI. If no packets are shown the sender has not sent any weather packets the latest 10 day(s).
| Time | Temp. | Humidity | Pressure | Rain* | Wind** | Luminosity | Snow |
|---|---|---|---|---|---|---|---|
| 1787673304 | 23.89° C | 68% | 1015.2 hPa | 0 mm | - | 553 W/m² | - |
| 1787673004 | 23.89° C | 69% | 1015.6 hPa | 0 mm | - | 570 W/m² | - |
| 1787672699 | 23.33° C | 69% | 1015.5 hPa | 0 mm | - | 584 W/m² | - |
| 1787672394 | 23.33° C | 70% | 1015.8 hPa | 0 mm | - | 586 W/m² | - |
| 1787672089 | 23.33° C | 71% | 1015.7 hPa | 0 mm | - | 592 W/m² | - |
| 1787671788 | 22.78° C | 70% | 1016 hPa | 0 mm | - | 581 W/m² | - |
| 1787671483 | 22.78° C | 70% | 1016 hPa | 0 mm | - | 454 W/m² | - |
| 1787671178 | 22.78° C | 71% | 1016 hPa | 0 mm | - | 553 W/m² | - |
| 1787670874 | 22.78° C | 71% | 1016.2 hPa | 0 mm | - | 542 W/m² | - |
| 1787670570 | 22.22° C | 71% | 1016.3 hPa | 0 mm | - | 490 W/m² | - |
| 1787670263 | 22.22° C | 73% | 1016.2 hPa | 0 mm | - | 488 W/m² | - |
| 1787669958 | 22.22° C | 73% | 1016.2 hPa | 0 mm | - | 247 W/m² | - |
| 1787669653 | 21.67° C | 74% | 1016.5 hPa | 0 mm | - | 246 W/m² | - |
| 1787669348 | 21.67° C | 74% | 1016.3 hPa | 0 mm | - | 184 W/m² | - |
| 1787669043 | 21.67° C | 76% | 1016.9 hPa | 0 mm | - | 182 W/m² | - |
| 1787668739 | 21.67° C | 75% | 1016.6 hPa | 0 mm | - | 123 W/m² | - |
| 1787668435 | 21.67° C | 76% | 1016.6 hPa | 0 mm | - | 214 W/m² | - |
| 1787668129 | 21.67° C | 76% | 1016.6 hPa | 0 mm | - | 162 W/m² | - |
| 1787667819 | 21.67° C | 77% | 1016.6 hPa | 0 mm | - | 170 W/m² | - |
| 1787667515 | 21.67° C | 76% | 1016.5 hPa | 0 mm | - | 192 W/m² | - |
| 1787667210 | 21.11° C | 78% | 1016.5 hPa | 0 mm | - | 344 W/m² | - |
| 1787666904 | 21.11° C | 79% | 1016.7 hPa | 0 mm | - | 186 W/m² | - |
| 1787666601 | 20.56° C | 79% | 1016.6 hPa | 0 mm | - | 159 W/m² | - |
| 1787666300 | 20.56° C | 81% | 1016.6 hPa | 0 mm | - | 83 W/m² | - |
| 1787665996 | 20.56° C | 82% | 1016.5 hPa | 0 mm | - | 79 W/m² | - |
* Rain latest hour (hover to see other rain measurements)
** Current wind speed in m/s (hover to see current wind gust speed)